CAPE
1966 1889 1947 2083 2285 2057 2360 2603 2314 2300 2810 2438 2300 2366 2747 3005 3106 3106 3163 3260 3402 3238 3366 3591 3591 3671 3361 3698 4162 3911 3759 3759 3654 3573 3778 3719 3226 2965 2713 3121 3386 3477
2025 1973 2122 1988 2514 2771 2767 2388 2508 2534 3017 3231 2650 2772 3041 3156 2941 2948 2979 3175 3238 3184 3539 3395 3376 3424 3513 3245 3925 3666 3793 3708 3625 3450 3740 3782 3428 3093 2896 3204 3215 3520
2005 2103 2044 1983 1899 2320 2033 2257 2401 2793 2516 2432 2692 3275 2991 2886 2620 3088 3314 3205 2904 2957 3321 3739 3397 3513 3349 3546 4015 3670 3378 3883 3465 3226 3558 3547 3578 3412 3360 2942 2888 3188
2210 2120 1849 1755 1706 1941 2154 2572 2798 2673 2332 2768 2732 2628 2722 2568 2663 2823 3309 3513 3294 3297 3143 3115 3134 2895 3203 3422 3999 3591 3507 3831 3408 3556 3458 3608 3555 3443 3412 3381 3090 2934
2074 2216 2105 2056 1953 2221 2388 2454 2175 2236 2255 2316 2413 2819 3168 3286 3188 2666 2970 3188 3551 3178 3129 3333 3320 2991 3425 3513 3753 3517 3471 3419 3504 3767 3632 3489 3410 3352 3160 3384 3545 3131
2302 2430 2575 2370 2424 2439 2213 2229 2205 2209 2264 2236 2515 2504 2614 2935 2862 2610 2670 2649 2536 2506 2329 2438 2646 2598 2632 3033 3595 3395 3152 3213 3265 3708 3554 3550 3001 3158 3027 3405 3633 3425
2078 2434 2274 2328 2311 2223 2181 2201 2284 2428 2202 2161 2531 2536 2525 2566 2710 2655 2786 2684 2441 2578 2394 2593 3192 3007 2867 3390 3752 3938 3752 3618 3484 3614 3538 3403 3501 3420 3426 3613 3833 3895
1786 2118 2240 2382 2260 2251 2358 2238 2362 2481 2572 2612 2504 2555 2582 2396 2563 2420 2621 2714 2627 2615 2750 2597 3063 3604 3010 2958 3394 3667 3523 2876 3171 3679 3605 3498 3574 3516 3392 3321 3538 3956
1922 2217 2271 2348 2229 2225 2193 2080 2292 2406 2553 2569 2246 2258 2667 2478 2516 2440 2866 3030 2708 2674 3012 2890 3312 3048 2999 3241 3412 3612 3404 2658 2657 3058 3478 3483 3433 3562 3248 3118 3235 3458
2374 2302 2146 2196 2158 2224 2186 2142 2114 2313 2583 2434 2229 2126 2278 2695 2701 2596 2862 3225 2974 2940 3117 3148 3130 3094 2978 3152 3494 3462 3254 3340 3149 3207 3202 3334 3395 3447 3243 3120 2976 2924
2344 2320 2252 2260 2199 2152 2232 2191 2182 2170 2388 2350 2160 2024 2104 2232 2684 2796 2900 3182 2686 2762 2989 3095 3024 3078 3263 2974 2956 2949 3208 2855 2796 3175 3274 3398 3377 3441 3493 3600 3474 3236
2512 2417 2336 2372 2314 2269 2266 2186 2096 2097 2175 2266 2138 2104 2236 2094 2186 2411 2500 2952 2898 2820 2865 3005 3124 3228 3290 3211 2750 2719 2901 2819 2834 3190 3090 3253 3359 3348 3494 3568 3464 3465
2564 2790 2821 2607 2542 2430 2324 2247 2103 2004 1986 2014 2081 2097 2095 1915 1866 2242 2487 2576 2894 2856 2685 2869 3112 2967 3224 3340 3051 2837 2870 2900 2712 2997 3107 3125 3343 3234 3205 3207 3286 3258
2620 2727 2706 2823 2746 2783 2734 2504 2298 2139 2162 2112 2210 2223 2106 1834 1662 1810 2249 2359 2592 2732 2792 2907 3198 3092 3299 3357 3071 2917 2905 2947 2936 2989 2902 2429 2047 2234 2348 2593 3070 3152
3042 2842 2534 2584 2779 2790 2526 2487 2618 2635 2590 2604 2589 2474 2175 2063 2001 1844 2018 2266 2368 2670 2778 2798 2702 2841 2836 2973 3091 3158 3005 2670 2572 2617 1841 1825 2420 2292 2267 2600 2693 3006
2904 2816 2682 2588 2307 2415 2645 2684 2546 2460 2364 2463 2516 2523 2496 2441 2406 2405 2315 2327 2472 2720 2828 2757 2577 2568 2769 2531 2648 2869 2590 2004 2064 2361 2688 2747 3024 2693 2572 2794 2507 3096
3053 2898 2524 2412 2420 2688 2979 2716 2435 2251 2221 2321 2399 2462 2513 2636 2530 2462 2346 2283 2280 2451 2682 2596 2190 2164 2458 2045 1738 1736 2549 2212 2121 2348 2853 3181 2885 2971 3227 2972 3139 3135
2294 2211 2254 2287 2287 2438 2588 2740 2450 2140 2200 2280 2179 2224 2529 2201 2205 2305 2440 2294 2257 2252 2306 2320 2205 1985 1727 1462 1134 1122 1870 2360 2467 2340 1883 2311 2755 3123 3299 3177 3190 3012
1589 1632 1804 1945 2009 2309 2229 2274 2229 2214 2231 2185 2089 2364 2579 2498 2498 2224 2306 2431 2128 2251 2119 2129 2118 1884 1548 1284 1235 1402 1547 1808 2414 2430 2789 3035 2947 3239 3158 3418 3455 3234
1188 1202 1445 1605 1696 1775 2012 2103 2114 2156 2223 2122 1986 2157 2128 2107 2015 2052 2021 2249 2046 2162 2286 2050 2192 1613 1410 1236 1222 1274 1369 1529 2354 2981 3409 3258 3148 3124 3129 3167 3356 3325
895 1262 1546 1580 1486 1652 1859 2035 2037 2099 1742 1732 1913 2022 1916 2072 1961 1885 1944 1904 1788 1780 1985 1949 1402 1124 1018 1051 1127 1224 1278 1359 1730 2752 3486 3488 3357 3296 3477 3393 3476 3519
834 1080 986 1289 1324 1382 1583 1663 1632 1620 1547 1548 2016 2198 2145 1983 1836 1842 1839 1707 1667 1598 1686 683 668 743 808 897 963 1040 1134 1211 1579 2272 2856 3053 3183 3359 3481 3574 3491 3331
841 766 932 908 1058 1173 1251 1253 1282 1278 1196 1046 1270 1427 1482 1844 1888 1717 1667 1714 1608 1606 1283 525 452 520 554 615 704 816 932 1066 1419 1631 2002 2248 2376 2624 2842 2960 2880 2825
693 840 801 766 924 900 911 884 762 808 625 542 1056 1160 1338 1690 1604 1178 1060 1054 1045 995 838 654 483 402 357 423 476 509 540 923 1387 1573 1849 2002 2034 2133 2249 2279 2185 1752
612 627 620 669 590 598 524 527 491 588 768 903 886 1071 980 1009 1385 1375 1489 1496 1463 1406 1340 1255 1153 1019 836 641 506 547 560 783 859 1246 1383 1604 1733 1841 1868 1911 1619 1654
620 658 720 782 726 736 730 597 614 754 895 1021 962 950 961 914 1024 1072 1131 1128 1168 1237 1216 1210 1143 1086 989 876 711 621 625 622 643 897 1074 1199 1286 1061 1000 1386 1190 1144
Wind_Speed
7 6 3 2 2 2 1 1 2 3 2 2 2 3 4 5 4 4 5 4 3 3 3 2 2 2 3 2 2 2 2 3 4 3 3 3 2 1 2 3 3 4
6 5 6 4 5 5 4 2 1 2 2 2 1 1 1 2 3 3 4 4 4 3 3 3 2 2 2 2 2 1 1 2 2 3 3 2 1 1 1 2 3 3
6 6 5 3 4 3 1 1 1 1 2 2 1 0 1 1 2 2 3 4 5 5 4 4 4 3 3 3 3 2 2 2 2 2 3 2 2 2 2 3 3 3
7 6 5 4 4 4 3 4 3 3 2 2 1 1 1 2 2 2 3 3 4 4 5 5 5 5 4 4 4 3 3 3 3 4 3 3 2 2 2 3 3 3
7 7 7 6 6 6 6 6 4 3 2 2 2 2 2 2 2 2 2 3 3 4 4 4 4 4 4 4 3 3 4 3 3 3 3 2 2 2 1 2 2 3
10 10 9 8 8 8 7 6 5 5 4 3 2 4 3 2 2 2 2 2 2 3 4 4 5 5 4 3 3 3 4 4 4 3 2 2 1 1 1 2 2 2
11 12 10 10 8 9 8 8 7 7 6 5 6 5 5 4 4 3 2 3 3 4 4 4 5 6 5 5 4 3 3 3 3 2 2 1 1 1 1 1 1 1
12 13 12 12 11 11 10 10 9 9 9 9 8 7 7 5 5 5 4 3 3 3 4 4 4 4 5 5 5 4 3 3 2 2 2 1 1 1 2 2 1 1
14 15 15 13 12 13 12 11 12 11 12 11 10 10 9 8 7 6 7 6 5 5 5 5 4 4 4 4 4 4 4 4 4 4 3 2 1 1 1 2 1 1
16 16 15 15 15 16 15 14 14 14 14 13 12 12 11 11 10 9 9 9 7 7 6 5 5 4 4 4 3 3 3 4 4 4 4 3 2 3 3 3 2 2
17 18 17 17 17 19 17 16 16 16 17 15 15 13 13 13 13 12 11 11 10 8 7 7 6 6 5 5 5 4 3 3 3 3 3 3 3 3 4 3 3 3
19 20 19 18 19 19 19 18 18 17 17 17 16 15 14 14 14 14 14 13 11 9 8 8 8 8 8 6 5 5 4 3 3 3 3 4 4 4 4 4 4 4
19 20 22 22 21 21 20 20 19 19 19 19 19 17 17 17 17 16 17 15 14 13 11 11 10 10 10 8 7 6 5 3 3 3 4 5 6 5 5 5 5 4
20 22 21 23 24 23 22 21 21 20 21 21 22 21 20 19 19 19 19 18 17 16 15 15 14 13 11 10 8 7 6 5 3 5 10 11 9 9 8 7 6 6
22 24 23 24 25 24 21 21 22 23 24 24 24 23 23 22 21 21 21 20 20 19 18 17 17 16 15 12 11 8 8 9 6 13 10 11 10 8 7 7 8 7
22 25 25 25 26 25 24 25 24 25 25 25 25 25 25 25 24 23 22 22 22 21 20 19 18 19 18 14 12 13 15 12 10 10 12 13 13 11 10 9 8 9
25 25 26 27 28 29 30 28 26 27 27 27 27 27 27 28 26 24 24 24 23 22 21 20 20 20 24 22 16 14 17 16 14 13 13 13 15 15 12 11 11 11
26 26 25 26 27 27 28 30 30 30 29 28 27 28 30 29 27 27 26 25 25 23 22 21 20 20 20 16 15 15 16 16 16 17 17 16 17 16 16 14 13 12
36 33 28 27 27 28 29 29 29 28 29 29 28 29 31 31 30 29 29 28 26 25 23 23 21 25 21 21 21 19 18 16 17 17 18 19 19 18 17 17 16 15
30 34 36 31 29 30 30 29 28 28 29 29 30 31 31 32 31 30 30 29 27 26 25 24 26 36 32 30 29 29 27 22 19 18 19 18 19 19 19 19 18 17
37 39 40 38 36 37 35 32 29 31 31 31 30 31 32 33 32 32 32 30 28 27 26 27 33 33 33 30 30 29 29 25 23 22 21 20 20 19 19 19 19 19
44 47 48 48 45 42 38 34 31 31 31 31 31 34 36 36 35 34 34 33 32 29 29 31 32 32 31 31 30 29 27 26 25 24 22 21 20 21 21 22 21 21
46 49 51 49 46 43 41 40 38 36 34 31 31 33 34 35 36 36 36 35 33 31 30 31 31 32 31 30 29 27 25 26 26 25 24 22 21 22 23 23 23 23
46 48 50 48 46 44 42 40 38 36 32 29 33 35 32 32 36 39 38 35 33 33 31 31 33 34 32 31 30 28 24 25 25 24 24 23 23 24 24 24 23 22
43 45 45 45 45 44 41 39 38 38 35 33 37 37 34 32 36 40 40 39 38 36 38 36 34 35 36 33 32 31 28 26 25 24 24 24 23 22 22 22 21 22
36 41 43 44 47 47 45 43 42 40 38 37 37 37 36 35 36 39 40 41 40 39 37 37 37 37 37 36 37 37 35 30 28 24 22 22 22 22 21 22 22 23
Wind_Direction
228 228 220 205 172 164 157 84 73 63 53 61 87 114 119 129 123 116 117 124 127 133 139 140 142 141 137 156 169 164 162 168 185 207 200 205 202 175 199 219 241 268
229 225 214 201 200 207 195 152 115 85 59 50 94 154 155 144 130 125 125 132 141 143 156 163 171 163 166 185 227 209 208 203 176 223 203 189 192 182 209 228 238 257
232 227 217 201 197 214 194 199 184 137 105 88 91 119 148 183 149 187 163 151 151 156 180 190 186 190 194 218 239 246 262 266 235 236 234 205 196 205 211 236 269 271
233 229 219 205 203 214 231 236 232 208 184 195 122 114 162 202 220 199 202 191 171 167 169 180 185 185 200 219 236 229 244 253 242 241 238 235 226 204 215 247 255 272
235 233 226 221 221 225 226 225 220 226 209 186 173 203 216 238 229 203 207 203 200 166 175 175 176 172 187 202 217 209 219 221 245 255 243 231 237 258 263 268 264 265
234 231 231 226 230 233 227 222 217 216 216 216 205 211 198 216 212 193 194 176 183 172 163 167 168 169 170 182 201 198 192 198 211 230 215 227 222 261 285 302 306 299
243 237 235 229 229 234 229 228 223 219 216 208 222 217 215 215 219 211 206 196 174 174 164 174 179 168 178 186 197 202 206 192 182 191 192 208 246 136 100 26 4 329
244 241 239 234 233 234 233 230 229 229 225 224 222 225 226 223 223 218 223 220 204 186 179 177 180 184 165 179 187 199 195 211 218 216 200 184 181 139 127 135 130 113
242 242 242 243 240 234 231 228 231 231 230 226 224 227 235 230 230 226 230 232 223 218 218 204 203 181 186 186 195 201 200 192 198 212 217 203 209 199 169 190 165 169
247 244 245 242 242 238 235 231 229 230 232 227 226 226 232 236 233 230 235 238 234 233 235 233 228 217 207 212 217 215 209 207 199 205 208 212 208 202 214 231 224 211
252 251 247 245 244 241 243 240 236 234 235 234 233 232 233 236 239 239 238 242 238 238 242 250 248 242 236 224 224 229 230 208 205 213 222 223 211 215 224 229 231 230
249 252 254 254 252 248 249 249 247 246 245 245 246 246 247 248 247 246 248 250 249 244 241 247 251 252 248 238 230 233 236 224 221 224 226 233 230 236 246 252 250 243
249 250 250 253 255 254 253 254 255 254 254 253 254 253 255 256 258 259 258 258 260 256 248 246 249 251 252 249 242 239 239 241 225 232 232 229 232 237 254 263 257 251
253 253 252 250 250 252 253 256 257 256 255 253 252 253 251 252 256 262 263 264 264 261 257 254 254 254 257 256 256 260 269 280 279 247 244 242 233 226 218 230 254 257
254 251 250 252 252 250 250 252 254 256 257 256 256 253 250 250 251 253 257 260 261 260 261 261 260 258 256 259 266 283 272 243 230 273 277 262 255 269 272 263 251 264
255 252 251 253 254 255 254 254 253 255 257 258 258 257 255 252 249 248 249 251 255 258 260 261 262 262 266 272 261 254 267 265 256 258 264 268 266 259 256 266 278 273
255 256 255 255 254 255 255 256 255 253 253 255 255 256 256 255 253 252 251 249 251 254 257 256 255 257 267 274 274 268 261 254 250 253 256 260 264 265 262 259 261 264
255 258 261 258 254 254 255 255 254 253 253 253 253 256 255 256 256 255 253 252 251 253 255 255 251 257 270 271 265 266 270 260 254 257 264 259 256 260 260 258 260 261
243 247 252 254 255 251 250 252 252 253 255 254 256 255 254 255 255 254 254 253 252 252 252 252 250 258 264 260 257 254 256 254 255 254 253 255 256 259 259 259 258 257
251 251 250 248 249 251 250 250 249 249 251 251 251 252 253 253 254 254 253 253 253 254 253 252 252 247 245 249 252 254 257 256 254 252 254 256 258 260 260 260 260 258
242 246 247 243 242 246 248 249 250 246 247 248 250 252 253 252 252 254 255 256 255 256 256 256 252 248 250 251 254 256 256 253 250 252 255 257 259 261 262 262 261 259
244 244 239 235 236 237 236 243 250 252 250 249 249 250 250 251 250 250 252 253 254 256 258 257 254 252 256 257 256 256 256 255 255 255 254 254 256 257 258 258 259 257
250 249 244 239 239 239 238 235 235 237 239 248 250 250 252 254 253 251 248 245 246 251 255 255 253 247 247 253 257 258 260 257 256 256 255 255 254 254 254 254 254 255
249 249 247 247 245 242 239 240 239 237 235 236 248 251 249 249 253 254 250 244 244 249 253 255 253 247 243 244 246 246 245 252 254 255 255 254 254 255 255 254 253 251
250 248 248 250 250 246 244 244 241 238 236 235 241 243 246 245 247 252 251 243 241 247 249 250 252 249 243 241 242 243 246 253 252 253 253 253 253 253 253 253 251 254
261 258 254 251 249 246 245 245 243 240 237 235 239 241 239 239 243 247 247 242 242 246 249 250 251 249 244 242 244 245 243 250 253 252 251 250 250 248 249 251 253 255